CW8540 Weather Reports


time (UTC)temp
F
wind
direction
speed
knots
gust
knots
rain 1hr
in
rain 24hr
in
rain mn
in
humidity
%
barometer
mb
20260507121543 48 299 4.3 7.8 0.00 0.00 0.00 63 1008.3
20260507120042 47 314 4.3 7.0 0.00 0.00 0.00 65 1008.1
20260507114559 46 289 0.0 2.6 0.00 0.00 0.00 65 1008.0
20260507113105 45 292 0.9 2.6 0.00 0.00 0.00 64 1008.1
20260507111547 46 293 0.9 2.6 0.00 0.00 0.00 64 1008.1
20260507110048 45 292 2.6 6.1 0.00 0.00 0.00 64 1008.2
20260507104544 44 304 0.0 3.5 0.00 0.00 0.00 69 1008.1
20260507103050 42 0 0.9 3.5 0.00 0.00 0.00 70 1008.1
20260507101546 40 248 0.9 2.6 0.00 0.00 0.00 69 1008.1
20260507100050 42 0 0.9 2.6 0.00 0.00 0.00 65 1008.0
20260507094546 41 0 0.0 1.7 0.00 0.00 0.00 68 1008.0
20260507093043 42 282 0.0 1.7 0.00 0.00 0.00 67 1008.1
20260507091543 42 284 0.9 2.6 0.00 0.00 0.00 63 1008.1
20260507090049 41 291 0.9 2.6 0.00 0.00 0.00 66 1008.0
20260507084545 41 0 0.0 3.5 0.00 0.00 0.00 65 1008.0
20260507083049 41 0 0.0 0.0 0.00 0.00 0.00 65 1008.0
20260507081553 41 0 0.0 0.9 0.00 0.00 0.00 66 1008.1
20260507080045 42 0 0.0 1.7 0.00 0.00 0.00 65 1008.2
20260507074558 43 0 0.0 0.0 0.00 0.00 0.00 61 1008.2
20260507073042 43 0 0.0 1.7 0.00 0.00 0.00 60 1008.1
20260507071541 43 0 0.0 1.7 0.00 0.00 0.00 60 1007.8
20260507070045 44 0 0.0 1.7 0.00 0.00 0.00 58 1008.0
20260507064548 47 5 0.0 1.7 0.00 0.00 0.00 52 1007.8
20260507063045 48 13 0.9 2.6 0.00 0.00 0.00 52 1007.6
20260507061543 49 0 0.0 1.7 0.00 0.00 0.00 52 1007.6
20260507060045 50 302 0.0 1.7 0.00 0.00 0.00 50 1007.6
20260507054545 50 0 0.0 1.7 0.00 0.00 0.00 50 1007.6
20260507053040 51 215 0.0 3.5 0.00 0.00 0.00 46 1007.5
20260507051547 53 128 2.6 6.1 0.00 0.00 0.00 43 1007.6
20260507050045 53 121 3.5 7.0 0.00 0.00 0.00 42 1007.5
20260507044550 54 104 1.7 7.0 0.00 0.00 0.00 42 1007.8
20260507043056 55 88 5.2 8.7 0.00 0.00 0.00 41 1007.7
20260507041542 54 51 7.8 12.2 0.00 0.00 0.00 41 1007.7
20260507040041 53 46 4.3 9.6 0.00 0.00 0.00 43 1007.6
20260507034546 55 84 5.2 9.6 0.00 0.00 0.00 40 1007.2
20260507033043 56 49 4.3 9.6 0.00 0.00 0.00 41 1007.2
20260507031546 56 83 2.6 5.2 0.00 0.00 0.00 41 1006.9
20260507030042 56 60 2.6 4.3 0.00 0.00 0.00 40 1006.6
20260507024552 57 69 1.7 5.2 0.00 0.00 0.00 38 1006.5
20260507023102 59 84 1.7 7.8 0.00 0.00 0.00 37 1006.4
20260507021545 59 109 2.6 7.8 0.00 0.00 0.00 36 1006.2
20260507020053 60 93 4.3 7.8 0.00 0.00 0.00 35 1006.1
20260507014541 61 92 4.3 9.6 0.00 0.00 0.00 34 1005.9
20260507013040 61 140 3.5 9.6 0.00 0.00 0.00 33 1005.8
20260507011546 62 108 5.2 8.7 0.00 0.00 0.00 31 1006.3
20260507010041 62 92 4.3 8.7 0.00 0.00 0.00 31 1006.3
20260507004544 63 125 7.0 9.6 0.00 0.00 0.00 30 1006.0
20260507003042 63 127 6.1 8.7 0.00 0.00 0.00 29 1005.8
20260507001606 63 73 7.0 9.6 0.00 0.00 0.00 28 1005.6
20260507000044 64 82 7.0 10.4 0.00 0.00 0.00 29 1005.5
20260506234541 64 87 5.2 9.6 0.00 0.00 0.00 28 1005.6
20260506233040 65 107 6.1 10.4 0.00 0.00 0.00 28 1005.5
20260506231549 65 93 7.8 10.4 0.00 0.00 0.00 27 1005.5
20260506230054 65 91 7.0 11.3 0.00 0.00 0.00 27 1005.6
20260506224543 64 67 6.1 9.6 0.00 0.00 0.00 28 1005.5
20260506223042 64 98 6.1 11.3 0.00 0.00 0.00 27 1005.8
20260506221551 65 78 2.6 7.0 0.00 0.00 0.00 30 1005.9
20260506220040 66 121 2.6 5.2 0.00 0.00 0.00 27 1006.4
20260506214553 66 211 2.6 6.1 0.00 0.00 0.00 26 1006.6
20260506213046 66 283 1.7 7.8 0.00 0.00 0.00 26 1006.8
20260506211542 66 171 5.2 8.7 0.00 0.00 0.00 25 1006.9
20260506210052 66 140 3.5 7.8 0.00 0.00 0.00 27 1006.6
20260506204553 65 342 0.9 6.1 0.00 0.00 0.00 26 1006.9
20260506203045 64 127 5.2 11.3 0.00 0.00 0.00 26 1006.9
20260506201540 64 192 2.6 11.3 0.00 0.00 0.00 27 1007.0
20260506200049 64 184 3.5 7.8 0.00 0.00 0.00 26 1007.4
20260506194544 64 157 5.2 13.0 0.00 0.00 0.00 27 1007.4
20260506193045 63 213 5.2 10.4 0.00 0.00 0.00 26 1007.6
20260506191541 62 134 5.2 13.9 0.00 0.00 0.00 27 1007.8
20260506190040 62 205 5.2 12.2 0.00 0.00 0.00 27 1008.0
20260506184549 61 148 7.0 14.8 0.00 0.00 0.00 28 1008.3
20260506183046 60 183 6.1 11.3 0.00 0.00 0.00 28 1008.5
20260506181554 60 198 6.1 10.4 0.00 0.00 0.00 30 1008.8
20260506180052 58 182 6.1 12.2 0.00 0.00 0.00 29 1008.9
20260506174546 58 131 6.1 12.2 0.00 0.00 0.00 30 1009.2
20260506173051 57 142 5.2 10.4 0.00 0.00 0.00 33 1009.3
20260506171546 56 174 6.1 10.4 0.00 0.00 0.00 34 1009.3
20260506170052 55 134 5.2 8.7 0.00 0.00 0.00 38 1009.7
20260506164555 53 205 4.3 8.7 0.00 0.00 0.00 37 1009.9
20260506163059 52 161 3.5 7.8 0.00 0.00 0.00 40 1009.9
20260506161546 51 139 3.5 11.3 0.00 0.00 0.00 40 1010.2
20260506160056 49 199 5.2 9.6 0.00 0.00 0.00 40 1010.4
20260506154549 48 119 6.1 9.6 0.00 0.00 0.00 41 1010.6
20260506153041 47 192 5.2 11.3 0.00 0.00 0.00 43 1010.8
20260506151542 45 134 4.3 8.7 0.00 0.00 0.00 46 1010.9
20260506150101 43 156 3.5 7.0 0.00 0.00 0.00 48 1011.0
20260506144546 42 169 2.6 8.7 0.00 0.00 0.00 52 1011.3
20260506143045 40 150 2.6 6.1 0.00 0.00 0.00 55 1011.6
20260506141544 38 136 1.7 6.1 0.00 0.00 0.00 58 1011.7
20260506140042 36 146 1.7 4.3 0.00 0.00 0.00 60 1011.8
20260506134552 34 128 1.7 6.1 0.00 0.00 0.00 64 1011.9
20260506133059 32 115 1.7 3.5 0.00 0.00 0.00 65 1012.1
20260506131555 30 117 0.9 2.6 0.00 0.00 0.00 68 1012.3
20260506130048 29 109 0.9 2.6 0.00 0.00 0.00 69 1012.4
20260506124544 27 87 0.9 3.5 0.00 0.00 0.00 72 1012.4
20260506123043 24 80 2.6 5.2 0.00 0.00 0.00 75 1012.4